Regional Weather Roundup
Issued by NWS Charleston, SC

Current Version | Previous Version | Text Only | Print | Product List | Glossary Off
Versions: 1 2 3 4 5 6 7 8 9 10 11 12 13 14 15 16 17 18 19 20 21 22 23 24 25 26 27 28 29 30 31 32 33 34 35 36 37 38 39 40 41 42 43 44 45 46 47 48 49 50

000
ASUS42 KCHS 200112
RWRCHS

REGIONAL WEATHER ROUNDUP
NATIONAL WEATHER SERVICE CHARLESTON SC
900 PM EDT SAT AUG 19 2017

NOTE: "FAIR" INDICATES FEW OR NO CLOUDS BELOW 12,000 FEET WITH NO
SIGNIFICANT WEATHER AND/OR OBSTRUCTIONS TO VISIBILITY.

NOT ALL STATIONS ARE QUALITY CONTROLLED. USE DATA WITH CAUTION...
ESPECIALLY DEWPOINT OBSERVATIONS.

SCZ027-030-031-034>040-042>050-200200-
...SOUTHEAST SOUTH CAROLINA...

CITY           SKY/WX    TMP DP  RH WIND       PRES   REMARKS
N CHARLESTON   PTCLDY    83  79  88 S8        29.94R HX  94
WATERFRONT PRK   N/A    N/A N/A N/A SW7       29.79R
JOHNS ISLAND   FAIR      84  81  89 S7        29.95R HX  98
PINOPOLIS        N/A     84  79  84 VRB2      29.87R HX  96
MONCKS CORNER  FAIR      82  77  83 S5        29.94R HX  91
SUMMERVILLE    FAIR      82  77  83 CALM      29.95R HX  91
BEAUFORT MCAS  PTCLDY    86  80  82 S7        29.95R HX 101
BEAUFORT ARPT  FAIR      84  79  84 S7        29.95R HAZE    HX  96
HILTON HEAD IS CLEAR     84  81  89 S7        29.97R HX  98
WALTERBORO     PTCLDY    81  73  78 CALM      29.95R
ALLENDALE      NOT AVBL

...SOUTHERN MIDLANDS AND PEE DEE...

CITY           SKY/WX    TMP DP  RH WIND       PRES   REMARKS
GEORGETOWN     FAIR      81  79  94 S5        29.95S
KINGSTREE      FAIR      77  73  88 CALM      29.93S
ORANGEBURG     CLEAR     79  69  71 CALM      29.94R
BARNWELL       FAIR      81  73  78 CALM      29.95R
AIKEN          FAIR      77  70  78 SW3       29.99R
MANNING        FAIR      79  77  94 MISG      29.94R
COLUMBIA       MOCLDY    86  70  58 CALM      29.93R HX  90
SUMTER         CLEAR     86  67  53 SW5       29.91R
FLORENCE       CLEAR     82  76  81 E8        29.94R
MYRTLE BEACH   CLEAR     84  75  74 S9        29.94S HX  92
N MYRTLE BEACH PTCLDY    83  78  85 S6        29.94S HX  93

$$

GAZ063-065-086>088-099>101-113>116-118-119-134>141-150-200200-
...SOUTHEAST GEORGIA...

CITY           SKY/WX    TMP DP  RH WIND       PRES   REMARKS
SAVANNAH ARPT  CLOUDY    85  76  74 S10       29.96R HX  94
HUNTER AAF     PTCLDY    84  78  81 S5        29.94R HX  95
FORT STEWART   CLOUDY    83  74  73 S7        29.94R HX  90
STATESBORO     CLOUDY    81  69  67 CALM      29.95R
SYLVANIA       CLEAR     78  75  91 CALM      29.96R
CLAXTON        FAIR      82  75  81 CALM      29.95R

...CSRA...CENTRAL AND FAR SOUTHEAST GEORGIA...

CITY           SKY/WX    TMP DP  RH WIND       PRES   REMARKS
THOMSON        CLEAR     78  73  86 CALM      30.02R
AUGUSTA-BUSH   CLEAR     79  74  84 CALM      29.94R
AUGUSTA-DANIEL CLEAR     87  64  46 W3        29.96R
SWAINSBORO     FAIR      81  73  78 CALM      29.97R
VIDALIA        CLEAR     82  70  65 CALM      29.96R
EASTMAN        FAIR      80  65  59 CALM      29.99R
HAZLEHURST     FAIR      82  62  49 CALM      29.95R
ALMA           CLOUDY    80  71  74 CALM      29.95R
WAYCROSS       CLOUDY    85  72  63 SW5       29.95R THUNDER HX  91
JESUP          FAIR      84  75  74 CALM      29.96R HX  92
BAXLEY         FAIR      81  72  74 CALM      29.95R
BRUNSWICK      PTCLDY    81  75  83 CALM      29.96S
SAINT SIMONS   PTCLDY    85  78  80 S6        29.96S HX  96

$$

SCZ027-028-034-036>038-045-046-048>050-GAZ119-141-200200-
...LAKE AND SUPPLEMENTAL COASTAL OBSERVATIONS...

STATION/POSITION TIME  TEMP    WIND        PRES    WAVE   SWELL
                       AIR SEA DIR/SP/G            HT/PER HT/PER/DIR
                 (UTC) (F)     (DEG/KT/KT) (MB)    (FT/S) (FT/S/D)
WINYAH BAY       2345   85     200/  8     1014.0
LAKE MURRAY      0020   89      CALM  /  2 1012.5R
ACE BASIN NERRS  2345   86        CALM     1014.0
FORT PULASKI     0048   85 87  210/  8/ 13 1014.9R
SAPELO ISLAND    0000   83     170/  6     1014.0

$$

ANZ835-935-AMZ111-154-330-350-352-354-370-450-454-472-200200-
...C-MAN AND BUOY OBSERVATIONS...

STATION/POSITION TIME  TEMP    WIND        PRES    WAVE   SWELL
                       AIR SEA DIR/SP/G            HT/PER HT/PER/DIR
                 (UTC) (F)     (DEG/KT/KT) (MB)    (FT/S) (FT/S/D)
BUOY 41004       0050   83 85  200/ 12/ 14 1013.8R   3/ 9   2/120/ 9
BUOY 41008       0050   85 85  180/ 14/ 16 1014.3R   2/10   2/100/10
FOLLY BEACH CMAN 0000   84     200/ 12/ 14 1014.5R
CAPERS NEARSHORE 0008   82 86  210/ 14/ 17 1013.5R
FRIPP NEARSHORE  0008   85     200/ 12/ 14 1013.2R


STATION/POSITION TIME  TEMP    WIND        PRES    WAVE   SWELL
                       AIR SEA DIR/SP/G            HT/PER HT/PER/DIR
                 (UTC) (F)     (DEG/KT/KT) (MB)    (FT/S) (FT/S/D)
5E ST. MARYS GA  0030      85                N/A     2/ 9
FRYING PAN BUOY  0050   84 84  210/ 10/ 12 1014.3S   3/ 5   3/210/ 5
BUOY 41025       0050   82 83  250/  6/  8 1013.9R   3/ 9   3/120/ 9
CAPE LOOKOUT NC  0000   80     120/ 11/ 11 1013.8F
BUOY 41002       0050   84 85  200/  8/ 10 1017.0R   4/ 8   3/100/ 8
BUOY 41010       0050   84 86  130/ 10/ 14 1015.1S   3/ 8   2/130/ 8
ST AUGUSTINE FL  0100   83 83  160/ 11/ 12 1015.3R


$$




USA.gov is the U.S. government's official web portal to all federal, state and local government web resources and services.